Time,TemperatureF,DewpointF,PressureIn,WindDirection,WindDirectionDegrees,WindSpeedMPH,WindSpeedGustMPH,Humidity,HourlyPrecipIn,Conditions,Clouds,dailyrainin,SoftwareType,DateUTC
2013-05-07 00:01:00,48.0,30.8,30.00,WNW,292,0.0,0.0,51,0.00,,,0.00,VWS V14.01,2013-05-07 06:01:00,
2013-05-07 00:06:00,48.0,29.8,30.00,WNW,292,0.0,0.0,49,0.00,,,0.00,VWS V14.01,2013-05-07 06:06:00,
2013-05-07 00:11:00,48.0,30.8,29.99,WNW,292,0.0,0.0,51,0.00,,,0.00,VWS V14.01,2013-05-07 06:11:00,
2013-05-07 00:16:00,47.0,30.8,29.99,WNW,292,0.0,0.0,53,0.00,,,0.00,VWS V14.01,2013-05-07 06:16:00,
2013-05-07 00:21:00,47.0,29.8,30.00,WNW,292,1.0,1.0,51,0.00,,,0.00,VWS V14.01,2013-05-07 06:21:00,
2013-05-07 00:26:00,47.0,29.8,30.00,WNW,292,0.0,1.0,51,0.00,,,0.00,VWS V14.01,2013-05-07 06:26:00,
2013-05-07 00:31:00,47.0,30.8,29.99,WNW,292,0.0,0.0,53,0.00,,,0.00,VWS V14.01,2013-05-07 06:31:00,
2013-05-07 00:36:00,46.0,31.6,29.99,WNW,292,0.0,0.0,57,0.00,,,0.00,VWS V14.01,2013-05-07 06:36:00,
2013-05-07 00:41:00,46.0,30.8,30.01,West,270,0.0,2.0,55,0.00,,,0.00,VWS V14.01,2013-05-07 06:41:00,
2013-05-07 00:46:00,46.0,29.8,30.01,WNW,292,0.0,2.0,53,0.00,,,0.00,VWS V14.01,2013-05-07 06:46:00,
2013-05-07 00:51:00,47.0,29.8,29.99,West,270,0.0,2.0,51,0.00,,,0.00,VWS V14.01,2013-05-07 06:51:00,
2013-05-07 00:56:00,47.0,30.8,29.99,WSW,247,0.0,6.0,53,0.00,,,0.00,VWS V14.01,2013-05-07 06:56:00,
2013-05-07 01:01:00,47.0,30.3,29.99,WNW,292,1.0,1.0,52,0.00,,,0.00,VWS V14.01,2013-05-07 07:01:00,
2013-05-07 01:06:00,45.0,30.7,29.99,NW,315,2.0,3.0,57,0.00,,,0.00,VWS V14.01,2013-05-07 07:06:00,
2013-05-07 01:11:00,45.0,30.3,30.00,WNW,292,1.0,3.0,56,0.00,,,0.00,VWS V14.01,2013-05-07 07:11:00,
2013-05-07 01:16:00,46.0,30.3,30.00,West,270,1.0,5.0,54,0.00,,,0.00,VWS V14.01,2013-05-07 07:16:00,
2013-05-07 01:21:00,45.0,29.8,30.00,WNW,292,0.0,5.0,55,0.00,,,0.00,VWS V14.01,2013-05-07 07:21:00,
2013-05-07 01:26:00,45.0,30.3,30.00,WNW,292,0.0,5.0,56,0.00,,,0.00,VWS V14.01,2013-05-07 07:26:00,
2013-05-07 01:31:00,45.0,29.8,30.00,WNW,292,1.0,2.0,55,0.00,,,0.00,VWS V14.01,2013-05-07 07:31:00,
2013-05-07 01:36:00,44.0,29.8,30.00,NW,315,1.0,3.0,57,0.00,,,0.00,VWS V14.01,2013-05-07 07:36:00,
2013-05-07 01:41:00,44.0,29.8,30.00,NW,315,1.0,3.0,57,0.00,,,0.00,VWS V14.01,2013-05-07 07:41:00,
2013-05-07 01:46:00,44.0,29.8,30.00,WNW,292,0.0,3.0,57,0.00,,,0.00,VWS V14.01,2013-05-07 07:46:00,
2013-05-07 01:51:00,44.0,30.2,30.00,WNW,292,2.0,3.0,58,0.00,,,0.00,VWS V14.01,2013-05-07 07:51:00,
2013-05-07 01:56:00,44.0,29.8,30.00,WNW,292,5.0,6.0,57,0.00,,,0.00,VWS V14.01,2013-05-07 07:56:00,
2013-05-07 02:01:00,45.0,29.8,29.98,WNW,292,4.0,5.0,55,0.00,,,0.00,VWS V14.01,2013-05-07 08:01:00,
2013-05-07 02:06:00,44.0,30.2,29.98,NW,315,1.0,6.0,58,0.00,,,0.00,VWS V14.01,2013-05-07 08:06:00,
2013-05-07 02:11:00,43.0,29.7,29.99,NW,315,2.0,6.0,59,0.00,,,0.00,VWS V14.01,2013-05-07 08:11:00,
2013-05-07 02:16:00,44.0,30.2,29.99,WNW,292,2.0,6.0,58,0.00,,,0.00,VWS V14.01,2013-05-07 08:16:00,
2013-05-07 02:21:00,43.0,29.7,29.99,NW,315,1.0,6.0,59,0.00,,,0.00,VWS V14.01,2013-05-07 08:21:00,
2013-05-07 02:26:00,42.0,29.1,29.99,NW,315,1.0,6.0,60,0.00,,,0.00,VWS V14.01,2013-05-07 08:26:00,
2013-05-07 02:31:00,43.0,29.2,29.99,NW,315,1.0,1.0,58,0.00,,,0.00,VWS V14.01,2013-05-07 08:31:00,
2013-05-07 02:36:00,43.0,28.8,29.99,West,270,2.0,2.0,57,0.00,,,0.00,VWS V14.01,2013-05-07 08:36:00,
2013-05-07 02:41:00,44.0,30.2,29.98,WNW,292,1.0,2.0,58,0.00,,,0.00,VWS V14.01,2013-05-07 08:41:00,
2013-05-07 02:46:00,44.0,29.8,29.98,WNW,292,0.0,2.0,57,0.00,,,0.00,VWS V14.01,2013-05-07 08:46:00,
2013-05-07 02:51:00,44.0,29.8,29.98,WNW,292,0.0,3.0,57,0.00,,,0.00,VWS V14.01,2013-05-07 08:51:00,
2013-05-07 02:56:00,43.0,29.7,29.98,West,270,2.0,3.0,59,0.00,,,0.00,VWS V14.01,2013-05-07 08:56:00,
2013-05-07 03:01:00,44.0,29.8,29.98,West,270,0.0,2.0,57,0.00,,,0.00,VWS V14.01,2013-05-07 09:01:00,
2013-05-07 03:06:00,45.0,29.8,29.98,West,270,0.0,3.0,55,0.00,,,0.00,VWS V14.01,2013-05-07 09:06:00,
2013-05-07 03:11:00,45.0,29.4,29.97,West,270,0.0,3.0,54,0.00,,,0.00,VWS V14.01,2013-05-07 09:11:00,
2013-05-07 03:16:00,44.0,30.2,29.97,West,270,1.0,3.0,58,0.00,,,0.00,VWS V14.01,2013-05-07 09:16:00,
2013-05-07 03:21:00,44.0,30.2,29.97,WSW,247,1.0,3.0,58,0.00,,,0.00,VWS V14.01,2013-05-07 09:21:00,
2013-05-07 03:26:00,43.0,29.2,29.97,WSW,247,0.0,3.0,58,0.00,,,0.00,VWS V14.01,2013-05-07 09:26:00,
2013-05-07 03:31:00,44.0,29.8,29.97,WSW,247,0.0,2.0,57,0.00,,,0.00,VWS V14.01,2013-05-07 09:31:00,
2013-05-07 03:36:00,43.0,28.8,29.97,WSW,247,0.0,2.0,57,0.00,,,0.00,VWS V14.01,2013-05-07 09:36:00,
2013-05-07 03:41:00,43.0,29.7,29.97,West,270,1.0,2.0,59,0.00,,,0.00,VWS V14.01,2013-05-07 09:41:00,
2013-05-07 03:46:00,43.0,29.7,29.97,West,270,1.0,3.0,59,0.00,,,0.00,VWS V14.01,2013-05-07 09:46:00,
2013-05-07 03:51:00,43.0,29.2,29.97,WSW,247,2.0,4.0,58,0.00,,,0.00,VWS V14.01,2013-05-07 09:51:00,
2013-05-07 03:56:00,44.0,30.2,29.97,WSW,247,6.0,7.0,58,0.00,,,0.00,VWS V14.01,2013-05-07 09:56:00,
2013-05-07 04:01:00,44.0,29.8,29.97,WSW,247,2.0,7.0,57,0.00,,,0.00,VWS V14.01,2013-05-07 10:01:00,
2013-05-07 04:06:00,44.0,30.2,29.97,WSW,247,1.0,7.0,58,0.00,,,0.00,VWS V14.01,2013-05-07 10:06:00,
2013-05-07 04:11:00,44.0,30.2,29.97,SW,225,0.0,7.0,58,0.00,,,0.00,VWS V14.01,2013-05-07 10:11:00,
2013-05-07 04:16:00,43.0,30.1,29.97,North,360,0.0,7.0,60,0.00,,,0.00,VWS V14.01,2013-05-07 10:16:00,
2013-05-07 04:21:00,43.0,30.1,29.97,West,270,2.0,7.0,60,0.00,,,0.00,VWS V14.01,2013-05-07 10:21:00,
2013-05-07 04:26:00,44.0,30.2,29.97,West,270,0.0,7.0,58,0.00,,,0.00,VWS V14.01,2013-05-07 10:26:00,
2013-05-07 04:31:00,44.0,30.6,29.96,WSW,247,2.0,2.0,59,0.00,,,0.00,VWS V14.01,2013-05-07 10:31:00,
2013-05-07 04:36:00,43.0,29.7,29.96,WNW,292,0.0,2.0,59,0.00,,,0.00,VWS V14.01,2013-05-07 10:36:00,
2013-05-07 04:41:00,43.0,29.7,29.96,West,270,1.0,3.0,59,0.00,,,0.00,VWS V14.01,2013-05-07 10:41:00,
2013-05-07 04:46:00,42.0,29.5,29.96,WNW,292,0.0,3.0,61,0.00,,,0.00,VWS V14.01,2013-05-07 10:46:00,
2013-05-07 04:51:00,42.0,29.5,29.97,NW,315,0.0,3.0,61,0.00,,,0.00,VWS V14.01,2013-05-07 10:51:00,
2013-05-07 04:56:00,42.0,29.9,29.97,West,270,1.0,3.0,62,0.00,,,0.00,VWS V14.01,2013-05-07 10:56:00,
2013-05-07 05:01:00,42.0,29.5,29.97,West,270,0.0,0.0,61,0.00,,,0.00,VWS V14.01,2013-05-07 11:01:00,
2013-05-07 05:06:00,42.0,29.5,29.97,WSW,247,0.0,2.0,61,0.00,,,0.00,VWS V14.01,2013-05-07 11:06:00,
2013-05-07 05:11:00,43.0,29.7,29.96,West,270,0.0,2.0,59,0.00,,,0.00,VWS V14.01,2013-05-07 11:11:00,
2013-05-07 05:16:00,43.0,29.7,29.96,West,270,0.0,2.0,59,0.00,,,0.00,VWS V14.01,2013-05-07 11:16:00,
2013-05-07 05:21:00,43.0,28.8,29.96,WSW,247,0.0,2.0,57,0.00,,,0.00,VWS V14.01,2013-05-07 11:21:00,
2013-05-07 05:26:00,44.0,29.8,29.96,West,270,0.0,2.0,57,0.00,,,0.00,VWS V14.01,2013-05-07 11:26:00,
2013-05-07 05:31:00,44.0,30.2,29.95,NE,45,0.0,0.0,58,0.00,,,0.00,VWS V14.01,2013-05-07 11:31:00,
2013-05-07 05:36:00,43.0,29.7,29.95,NW,315,0.0,0.0,59,0.00,,,0.00,VWS V14.01,2013-05-07 11:36:00,
2013-05-07 05:41:00,43.0,29.7,29.96,West,270,0.0,0.0,59,0.00,,,0.00,VWS V14.01,2013-05-07 11:41:00,
2013-05-07 05:46:00,43.0,30.1,29.96,West,270,0.0,0.0,60,0.00,,,0.00,VWS V14.01,2013-05-07 11:46:00,
2013-05-07 05:51:00,43.0,30.5,29.96,West,270,0.0,0.0,61,0.00,,,0.00,VWS V14.01,2013-05-07 11:51:00,
2013-05-07 05:56:00,43.0,30.5,29.96,West,270,0.0,2.0,61,0.00,,,0.00,VWS V14.01,2013-05-07 11:56:00,
2013-05-07 06:01:00,43.0,30.1,29.96,WSW,247,0.0,0.0,60,0.00,,,0.00,VWS V14.01,2013-05-07 12:01:00,
2013-05-07 06:06:00,44.0,31.4,29.96,WSW,247,0.0,0.0,61,0.00,,,0.00,VWS V14.01,2013-05-07 12:06:00,
2013-05-07 06:11:00,44.0,31.4,29.95,WSW,247,0.0,0.0,61,0.00,,,0.00,VWS V14.01,2013-05-07 12:11:00,
2013-05-07 06:16:00,45.0,32.4,29.95,WSW,247,0.0,0.0,61,0.00,,,0.00,VWS V14.01,2013-05-07 12:16:00,
2013-05-07 06:21:00,46.0,32.5,29.94,SSW,202,1.0,2.0,59,0.00,,,0.00,VWS V14.01,2013-05-07 12:21:00,
2013-05-07 06:26:00,47.0,33.0,29.94,South,180,2.0,3.0,58,0.00,,,0.00,VWS V14.01,2013-05-07 12:26:00,
2013-05-07 06:31:00,48.0,32.6,29.93,South,180,1.0,4.0,55,0.00,,,0.00,VWS V14.01,2013-05-07 12:31:00,
2013-05-07 06:36:00,49.0,32.6,29.93,SSW,202,6.0,7.0,53,0.00,,,0.00,VWS V14.01,2013-05-07 12:36:00,
2013-05-07 06:41:00,50.0,31.6,29.91,South,180,7.0,8.0,49,0.00,,,0.00,VWS V14.01,2013-05-07 12:41:00,
2013-05-07 06:46:00,51.0,31.5,29.91,South,180,6.0,9.0,47,0.00,,,0.00,VWS V14.01,2013-05-07 12:46:00,
2013-05-07 06:51:00,52.0,31.3,29.90,South,180,5.0,9.0,45,0.00,,,0.00,VWS V14.01,2013-05-07 12:51:00,
2013-05-07 06:56:00,52.0,30.8,29.90,South,180,8.0,13.0,44,0.00,,,0.00,VWS V14.01,2013-05-07 12:56:00,
2013-05-07 07:01:00,53.0,32.2,29.89,SSE,157,10.0,12.0,45,0.00,,,0.00,VWS V14.01,2013-05-07 13:01:00,
2013-05-07 07:06:00,53.0,32.8,29.89,SSE,157,10.0,13.0,46,0.00,,,0.00,VWS V14.01,2013-05-07 13:06:00,
2013-05-07 07:11:00,53.0,33.8,29.89,SSE,157,12.0,13.0,48,0.00,,,0.00,VWS V14.01,2013-05-07 13:11:00,
2013-05-07 07:16:00,53.0,33.8,29.89,SSE,157,11.0,13.0,48,0.00,,,0.00,VWS V14.01,2013-05-07 13:16:00,
2013-05-07 07:21:00,53.0,32.8,29.89,SSE,157,10.0,15.0,46,0.00,,,0.00,VWS V14.01,2013-05-07 13:21:00,
2013-05-07 07:26:00,53.0,33.8,29.89,SSE,157,13.0,15.0,48,0.00,,,0.00,VWS V14.01,2013-05-07 13:26:00,
2013-05-07 07:31:00,53.0,33.8,29.89,SE,135,11.0,15.0,48,0.00,,,0.00,VWS V14.01,2013-05-07 13:31:00,
2013-05-07 07:36:00,54.0,34.8,29.89,South,180,14.0,16.0,48,0.00,,,0.00,VWS V14.01,2013-05-07 13:36:00,
2013-05-07 07:41:00,55.0,36.2,29.87,South,180,9.0,16.0,49,0.00,,,0.00,VWS V14.01,2013-05-07 13:41:00,
2013-05-07 07:46:00,56.0,37.6,29.87,South,180,13.0,17.0,50,0.00,,,0.00,VWS V14.01,2013-05-07 13:46:00,
2013-05-07 07:51:00,57.0,38.0,29.86,South,180,17.0,20.0,49,0.00,,,0.00,VWS V14.01,2013-05-07 13:51:00,
2013-05-07 07:56:00,57.0,38.6,29.86,South,180,13.0,20.0,50,0.00,,,0.00,VWS V14.01,2013-05-07 13:56:00,
2013-05-07 08:01:00,57.0,38.6,29.85,SSE,157,20.0,21.0,50,0.00,,,0.00,VWS V14.01,2013-05-07 14:01:00,
2013-05-07 08:06:00,58.0,39.0,29.85,SSE,157,13.0,21.0,49,0.00,,,0.00,VWS V14.01,2013-05-07 14:06:00,
2013-05-07 08:11:00,58.0,39.0,29.85,SSE,157,14.0,21.0,49,0.00,,,0.00,VWS V14.01,2013-05-07 14:11:00,
2013-05-07 08:16:00,58.0,39.0,29.85,South,180,12.0,21.0,49,0.00,,,0.00,VWS V14.01,2013-05-07 14:16:00,
2013-05-07 08:21:00,58.0,39.0,29.84,SSE,157,17.0,23.0,49,0.00,,,0.00,VWS V14.01,2013-05-07 14:21:00,
2013-05-07 08:26:00,58.0,39.5,29.84,South,180,17.0,23.0,50,0.00,,,0.00,VWS V14.01,2013-05-07 14:26:00,
2013-05-07 08:31:00,59.0,39.4,29.85,SSE,157,15.0,21.0,48,0.00,,,0.00,VWS V14.01,2013-05-07 14:31:00,
2013-05-07 08:36:00,59.0,39.4,29.85,SSE,157,14.0,23.0,48,0.00,,,0.00,VWS V14.01,2013-05-07 14:36:00,
2013-05-07 08:41:00,60.0,40.3,29.83,SSE,157,19.0,23.0,48,0.00,,,0.00,VWS V14.01,2013-05-07 14:41:00,
2013-05-07 08:46:00,59.0,39.4,29.83,South,180,17.0,24.0,48,0.00,,,0.00,VWS V14.01,2013-05-07 14:46:00,
2013-05-07 08:51:00,60.0,40.3,29.83,South,180,19.0,24.0,48,0.00,,,0.00,VWS V14.01,2013-05-07 14:51:00,
2013-05-07 08:56:00,61.0,40.7,29.83,South,180,15.0,24.0,47,0.00,,,0.00,VWS V14.01,2013-05-07 14:56:00,
2013-05-07 09:01:00,61.0,40.7,29.83,South,180,18.0,22.0,47,0.00,,,0.00,VWS V14.01,2013-05-07 15:01:00,
2013-05-07 09:06:00,61.0,40.7,29.83,South,180,16.0,23.0,47,0.00,,,0.00,VWS V14.01,2013-05-07 15:06:00,
2013-05-07 09:11:00,61.0,40.7,29.83,South,180,16.0,23.0,47,0.00,,,0.00,VWS V14.01,2013-05-07 15:11:00,
2013-05-07 09:16:00,61.0,40.7,29.83,South,180,19.0,23.0,47,0.00,,,0.00,VWS V14.01,2013-05-07 15:16:00,
2013-05-07 09:21:00,61.0,40.7,29.82,SSE,157,13.0,23.0,47,0.00,,,0.00,VWS V14.01,2013-05-07 15:21:00,
2013-05-07 09:26:00,61.0,40.7,29.82,South,180,20.0,24.0,47,0.00,,,0.00,VWS V14.01,2013-05-07 15:26:00,
2013-05-07 09:31:00,61.0,40.1,29.83,South,180,19.0,23.0,46,0.00,,,0.00,VWS V14.01,2013-05-07 15:31:00,
2013-05-07 09:36:00,61.0,40.1,29.83,South,180,16.0,23.0,46,0.00,,,0.00,VWS V14.01,2013-05-07 15:36:00,
2013-05-07 09:41:00,62.0,41.0,29.82,South,180,17.0,23.0,46,0.00,,,0.00,VWS V14.01,2013-05-07 15:41:00,
2013-05-07 09:46:00,61.0,40.1,29.82,South,180,15.0,23.0,46,0.00,,,0.00,VWS V14.01,2013-05-07 15:46:00,
2013-05-07 09:51:00,61.0,40.1,29.82,South,180,18.0,23.0,46,0.00,,,0.00,VWS V14.01,2013-05-07 15:51:00,
2013-05-07 09:56:00,61.0,41.2,29.82,SSE,157,19.0,23.0,48,0.00,,,0.00,VWS V14.01,2013-05-07 15:56:00,
2013-05-07 10:02:00,61.0,41.2,29.83,South,180,14.0,24.0,48,0.00,,,0.00,VWS V14.01,2013-05-07 16:02:00,
2013-05-07 10:07:00,62.0,41.6,29.83,SSE,157,17.0,24.0,47,0.00,,,0.00,VWS V14.01,2013-05-07 16:07:00,
2013-05-07 10:12:00,62.0,41.6,29.81,SE,135,14.0,26.0,47,0.00,,,0.00,VWS V14.01,2013-05-07 16:12:00,
2013-05-07 10:17:00,62.0,42.1,29.81,South,180,18.0,26.0,48,0.00,,,0.00,VWS V14.01,2013-05-07 16:17:00,
2013-05-07 10:22:00,63.0,41.9,29.81,SSE,157,19.0,26.0,46,0.00,,,0.00,VWS V14.01,2013-05-07 16:22:00,
2013-05-07 10:27:00,62.0,41.6,29.81,SSE,157,17.0,26.0,47,0.00,,,0.00,VWS V14.01,2013-05-07 16:27:00,
2013-05-07 10:32:00,63.0,42.5,29.81,SSE,157,17.0,22.0,47,0.00,,,0.00,VWS V14.01,2013-05-07 16:32:00,
2013-05-07 10:37:00,63.0,42.5,29.81,SSE,157,14.0,23.0,47,0.00,,,0.00,VWS V14.01,2013-05-07 16:37:00,
2013-05-07 10:42:00,63.0,40.8,29.81,SSE,157,22.0,25.0,44,0.00,,,0.00,VWS V14.01,2013-05-07 16:42:00,
2013-05-07 10:47:00,64.0,42.3,29.81,SSE,157,15.0,25.0,45,0.00,,,0.00,VWS V14.01,2013-05-07 16:47:00,
2013-05-07 10:52:00,65.0,42.6,29.79,SSE,157,17.0,25.0,44,0.00,,,0.00,VWS V14.01,2013-05-07 16:52:00,
2013-05-07 10:57:00,65.0,42.6,29.79,SSE,157,21.0,26.0,44,0.00,,,0.00,VWS V14.01,2013-05-07 16:57:00,
2013-05-07 11:02:00,65.0,42.6,29.79,SSE,157,16.0,25.0,44,0.00,,,0.00,VWS V14.01,2013-05-07 17:02:00,
2013-05-07 11:07:00,65.0,42.6,29.79,SSE,157,22.0,25.0,44,0.00,,,0.00,VWS V14.01,2013-05-07 17:07:00,
2013-05-07 11:12:00,66.0,42.9,29.79,SSE,157,24.0,25.0,43,0.00,,,0.00,VWS V14.01,2013-05-07 17:12:00,
2013-05-07 11:17:00,65.0,42.6,29.79,SSE,157,23.0,26.0,44,0.00,,,0.00,VWS V14.01,2013-05-07 17:17:00,
2013-05-07 11:22:00,66.0,42.3,29.78,SSE,157,19.0,26.0,42,0.00,,,0.00,VWS V14.01,2013-05-07 17:22:00,
2013-05-07 11:27:00,66.0,42.9,29.78,SSE,157,20.0,29.0,43,0.00,,,0.00,VWS V14.01,2013-05-07 17:27:00,
2013-05-07 11:32:00,67.0,43.8,29.79,South,180,16.0,26.0,43,0.00,,,0.00,VWS V14.01,2013-05-07 17:32:00,
2013-05-07 11:37:00,67.0,42.5,29.79,SSE,157,22.0,26.0,41,0.00,,,0.00,VWS V14.01,2013-05-07 17:37:00,
2013-05-07 11:42:00,67.0,43.2,29.77,SSE,157,20.0,26.0,42,0.00,,,0.00,VWS V14.01,2013-05-07 17:42:00,
2013-05-07 11:47:00,67.0,43.2,29.77,SSE,157,17.0,28.0,42,0.00,,,0.00,VWS V14.01,2013-05-07 17:47:00,
2013-05-07 11:52:00,68.0,42.8,29.77,South,180,23.0,28.0,40,0.00,,,0.00,VWS V14.01,2013-05-07 17:52:00,
2013-05-07 11:57:00,67.0,42.5,29.77,SSE,157,20.0,28.0,41,0.00,,,0.00,VWS V14.01,2013-05-07 17:57:00,
2013-05-07 12:02:00,67.0,41.9,29.76,SE,135,22.0,27.0,40,0.00,,,0.00,VWS V14.01,2013-05-07 18:02:00,
2013-05-07 12:07:00,68.0,43.5,29.76,SE,135,14.0,27.0,41,0.00,,,0.00,VWS V14.01,2013-05-07 18:07:00,
2013-05-07 12:12:00,69.0,44.3,29.76,SSE,157,11.0,27.0,41,0.00,,,0.00,VWS V14.01,2013-05-07 18:12:00,
2013-05-07 12:17:00,69.0,44.3,29.76,SSE,157,17.0,29.0,41,0.00,,,0.00,VWS V14.01,2013-05-07 18:17:00,
2013-05-07 12:22:00,68.0,41.5,29.75,SSE,157,23.0,29.0,38,0.00,,,0.00,VWS V14.01,2013-05-07 18:22:00,
2013-05-07 12:27:00,68.0,43.5,29.75,SSE,157,18.0,29.0,41,0.00,,,0.00,VWS V14.01,2013-05-07 18:27:00,
2013-05-07 12:32:00,69.0,44.3,29.75,SSE,157,20.0,24.0,41,0.00,,,0.00,VWS V14.01,2013-05-07 18:32:00,
2013-05-07 12:37:00,70.0,43.9,29.75,SSE,157,15.0,28.0,39,0.00,,,0.00,VWS V14.01,2013-05-07 18:37:00,
2013-05-07 12:42:00,70.0,43.9,29.74,SSE,157,20.0,28.0,39,0.00,,,0.00,VWS V14.01,2013-05-07 18:42:00,
2013-05-07 12:47:00,70.0,43.2,29.74,South,180,17.0,28.0,38,0.00,,,0.00,VWS V14.01,2013-05-07 18:47:00,
2013-05-07 12:52:00,69.0,43.0,29.75,SSE,157,19.0,29.0,39,0.00,,,0.00,VWS V14.01,2013-05-07 18:52:00,
2013-05-07 12:57:00,71.0,44.8,29.75,South,180,15.0,29.0,39,0.00,,,0.00,VWS V14.01,2013-05-07 18:57:00,
2013-05-07 13:02:00,71.0,44.8,29.73,South,180,19.0,20.0,39,0.00,,,0.00,VWS V14.01,2013-05-07 19:02:00,
2013-05-07 13:07:00,71.0,43.4,29.73,SSE,157,14.0,24.0,37,0.00,,,0.00,VWS V14.01,2013-05-07 19:07:00,
2013-05-07 13:12:00,70.0,43.9,29.73,South,180,22.0,25.0,39,0.00,,,0.00,VWS V14.01,2013-05-07 19:12:00,
2013-05-07 13:17:00,70.0,43.9,29.73,South,180,20.0,28.0,39,0.00,,,0.00,VWS V14.01,2013-05-07 19:17:00,
2013-05-07 13:22:00,70.0,41.1,29.73,South,180,20.0,28.0,35,0.00,,,0.00,VWS V14.01,2013-05-07 19:22:00,
2013-05-07 13:27:00,70.0,41.8,29.73,SW,225,17.0,28.0,36,0.00,,,0.00,VWS V14.01,2013-05-07 19:27:00,
2013-05-07 13:32:00,70.0,40.4,29.73,South,180,17.0,22.0,34,0.00,,,0.00,VWS V14.01,2013-05-07 19:32:00,
2013-05-07 13:37:00,70.0,41.8,29.73,SSE,157,17.0,22.0,36,0.00,,,0.00,VWS V14.01,2013-05-07 19:37:00,
2013-05-07 13:42:00,71.0,42.7,29.73,South,180,15.0,24.0,36,0.00,,,0.00,VWS V14.01,2013-05-07 19:42:00,
2013-05-07 13:47:00,69.0,41.7,29.73,SSE,157,16.0,24.0,37,0.00,,,0.00,VWS V14.01,2013-05-07 19:47:00,
2013-05-07 13:52:00,70.0,40.4,29.74,South,180,19.0,24.0,34,0.00,,,0.00,VWS V14.01,2013-05-07 19:52:00,
2013-05-07 13:57:00,70.0,39.6,29.74,SSW,202,9.0,24.0,33,0.00,,,0.00,VWS V14.01,2013-05-07 19:57:00,
2013-05-07 14:02:00,71.0,38.0,29.72,SSE,157,15.0,20.0,30,0.00,,,0.00,VWS V14.01,2013-05-07 20:02:00,
2013-05-07 14:07:00,71.0,38.9,29.72,SSE,157,10.0,20.0,31,0.00,,,0.00,VWS V14.01,2013-05-07 20:07:00,
2013-05-07 14:12:00,71.0,40.5,29.73,South,180,16.0,20.0,33,0.00,,,0.00,VWS V14.01,2013-05-07 20:12:00,
2013-05-07 14:17:00,72.0,40.6,29.73,South,180,13.0,20.0,32,0.00,,,0.00,VWS V14.01,2013-05-07 20:17:00,
2013-05-07 14:22:00,72.0,38.0,29.71,South,180,19.0,20.0,29,0.00,,,0.00,VWS V14.01,2013-05-07 20:22:00,
2013-05-07 14:27:00,72.0,38.0,29.71,SSE,157,16.0,20.0,29,0.00,,,0.00,VWS V14.01,2013-05-07 20:27:00,
2013-05-07 14:32:00,71.0,35.4,29.71,SW,225,13.0,14.0,27,0.00,,,0.00,VWS V14.01,2013-05-07 20:32:00,
2013-05-07 14:37:00,71.0,35.4,29.71,SW,225,11.0,15.0,27,0.00,,,0.00,VWS V14.01,2013-05-07 20:37:00,
2013-05-07 14:42:00,71.0,38.0,29.72,South,180,13.0,16.0,30,0.00,,,0.00,VWS V14.01,2013-05-07 20:42:00,
2013-05-07 14:47:00,71.0,37.2,29.72,South,180,11.0,17.0,29,0.00,,,0.00,VWS V14.01,2013-05-07 20:47:00,
2013-05-07 14:52:00,72.0,38.0,29.71,SSE,157,8.0,17.0,29,0.00,,,0.00,VWS V14.01,2013-05-07 20:52:00,
2013-05-07 14:57:00,72.0,38.0,29.71,SW,225,6.0,17.0,29,0.00,,,0.00,VWS V14.01,2013-05-07 20:57:00,
2013-05-07 15:02:00,72.0,38.0,29.70,SW,225,17.0,24.0,29,0.00,,,0.00,VWS V14.01,2013-05-07 21:02:00,
2013-05-07 15:07:00,72.0,36.2,29.70,WNW,292,5.0,24.0,27,0.00,,,0.00,VWS V14.01,2013-05-07 21:07:00,
2013-05-07 15:12:00,71.0,37.2,29.71,SW,225,14.0,24.0,29,0.00,,,0.00,VWS V14.01,2013-05-07 21:12:00,
2013-05-07 15:17:00,72.0,38.0,29.71,WSW,247,18.0,25.0,29,0.00,,,0.00,VWS V14.01,2013-05-07 21:17:00,
2013-05-07 15:22:00,71.0,38.0,29.69,WSW,247,25.0,29.0,30,0.00,,,0.00,VWS V14.01,2013-05-07 21:22:00,
2013-05-07 15:27:00,71.0,38.9,29.69,West,270,13.0,29.0,31,0.00,,,0.00,VWS V14.01,2013-05-07 21:27:00,
2013-05-07 15:32:00,69.0,37.9,29.71,SW,225,19.0,22.0,32,0.00,,,0.00,VWS V14.01,2013-05-07 21:32:00,
2013-05-07 15:37:00,68.0,37.8,29.71,WSW,247,15.0,26.0,33,0.00,,,0.00,VWS V14.01,2013-05-07 21:37:00,
2013-05-07 15:42:00,68.0,38.6,29.73,SW,225,15.0,26.0,34,0.00,,,0.00,VWS V14.01,2013-05-07 21:42:00,
2013-05-07 15:47:00,68.0,38.6,29.73,SW,225,15.0,26.0,34,0.00,,,0.00,VWS V14.01,2013-05-07 21:47:00,
2013-05-07 15:52:00,69.0,37.9,29.71,SW,225,18.0,26.0,32,0.00,,,0.00,VWS V14.01,2013-05-07 21:52:00,
2013-05-07 15:57:00,70.0,38.8,29.71,SW,225,16.0,26.0,32,0.00,,,0.00,VWS V14.01,2013-05-07 21:57:00,
2013-05-07 16:02:00,70.0,38.8,29.70,SW,225,13.0,19.0,32,0.00,,,0.00,VWS V14.01,2013-05-07 22:02:00,
2013-05-07 16:07:00,69.0,37.9,29.70,WSW,247,14.0,22.0,32,0.00,,,0.00,VWS V14.01,2013-05-07 22:07:00,
2013-05-07 16:12:00,70.0,38.0,29.70,SW,225,17.0,22.0,31,0.00,,,0.00,VWS V14.01,2013-05-07 22:12:00,
2013-05-07 16:17:00,70.0,38.0,29.70,SW,225,14.0,22.0,31,0.00,,,0.00,VWS V14.01,2013-05-07 22:17:00,
2013-05-07 16:22:00,70.0,37.2,29.69,WSW,247,13.0,22.0,30,0.00,,,0.00,VWS V14.01,2013-05-07 22:22:00,
2013-05-07 16:27:00,70.0,38.0,29.69,SW,225,12.0,22.0,31,0.00,,,0.00,VWS V14.01,2013-05-07 22:27:00,
2013-05-07 16:32:00,70.0,37.2,29.69,SSW,202,15.0,15.0,30,0.00,,,0.00,VWS V14.01,2013-05-07 22:32:00,
2013-05-07 16:37:00,71.0,38.0,29.69,SW,225,16.0,16.0,30,0.00,,,0.00,VWS V14.01,2013-05-07 22:37:00,
2013-05-07 16:42:00,72.0,38.0,29.68,South,180,11.0,16.0,29,0.00,,,0.00,VWS V14.01,2013-05-07 22:42:00,
2013-05-07 16:47:00,72.0,38.0,29.68,SW,225,8.0,16.0,29,0.00,,,0.00,VWS V14.01,2013-05-07 22:47:00,
2013-05-07 16:52:00,71.0,37.2,29.69,SW,225,9.0,16.0,29,0.00,,,0.00,VWS V14.01,2013-05-07 22:52:00,
2013-05-07 16:57:00,71.0,38.0,29.69,WSW,247,7.0,16.0,30,0.00,,,0.00,VWS V14.01,2013-05-07 22:57:00,
2013-05-07 17:02:00,71.0,37.2,29.67,SW,225,8.0,13.0,29,0.00,,,0.00,VWS V14.01,2013-05-07 23:02:00,
2013-05-07 17:07:00,71.0,38.0,29.67,SW,225,7.0,13.0,30,0.00,,,0.00,VWS V14.01,2013-05-07 23:07:00,
2013-05-07 17:12:00,72.0,38.0,29.68,SW,225,9.0,13.0,29,0.00,,,0.00,VWS V14.01,2013-05-07 23:12:00,
2013-05-07 17:17:00,72.0,36.2,29.68,WSW,247,7.0,13.0,27,0.00,,,0.00,VWS V14.01,2013-05-07 23:17:00,
2013-05-07 17:22:00,72.0,37.1,29.68,WSW,247,6.0,13.0,28,0.00,,,0.00,VWS V14.01,2013-05-07 23:22:00,
2013-05-07 17:27:00,72.0,37.1,29.68,West,270,9.0,13.0,28,0.00,,,0.00,VWS V14.01,2013-05-07 23:27:00,
2013-05-07 17:32:00,72.0,36.2,29.67,WSW,247,14.0,15.0,27,0.00,,,0.00,VWS V14.01,2013-05-07 23:32:00,
2013-05-07 17:37:00,72.0,36.2,29.67,WSW,247,7.0,15.0,27,0.00,,,0.00,VWS V14.01,2013-05-07 23:37:00,
2013-05-07 17:42:00,71.0,35.4,29.68,SW,225,9.0,15.0,27,0.00,,,0.00,VWS V14.01,2013-05-07 23:42:00,
2013-05-07 17:47:00,72.0,37.1,29.68,SW,225,12.0,15.0,28,0.00,,,0.00,VWS V14.01,2013-05-07 23:47:00,
2013-05-07 17:52:00,72.0,36.2,29.68,SW,225,5.0,15.0,27,0.00,,,0.00,VWS V14.01,2013-05-07 23:52:00,
2013-05-07 17:57:00,73.0,37.1,29.68,West,270,0.0,15.0,27,0.00,,,0.00,VWS V14.01,2013-05-07 23:57:00,
2013-05-07 18:02:00,72.0,36.2,29.67,WNW,292,7.0,9.0,27,0.00,,,0.00,VWS V14.01,2013-05-08 00:02:00,
2013-05-07 18:07:00,72.0,36.2,29.67,West,270,0.0,9.0,27,0.00,,,0.00,VWS V14.01,2013-05-08 00:07:00,
2013-05-07 18:12:00,66.0,44.7,29.71,East,90,15.0,19.0,46,0.00,,,0.00,VWS V14.01,2013-05-08 00:12:00,
2013-05-07 18:17:00,65.0,44.3,29.71,East,90,16.0,21.0,47,0.00,,,0.00,VWS V14.01,2013-05-08 00:17:00,
2013-05-07 18:22:00,64.0,44.5,29.73,East,90,20.0,26.0,49,0.00,,,0.00,VWS V14.01,2013-05-08 00:22:00,
2013-05-07 18:27:00,64.0,45.0,29.73,East,90,14.0,26.0,50,0.00,,,0.00,VWS V14.01,2013-05-08 00:27:00,
2013-05-07 18:32:00,63.0,44.1,29.75,East,90,10.0,20.0,50,0.00,,,0.00,VWS V14.01,2013-05-08 00:32:00,
2013-05-07 18:37:00,63.0,44.1,29.75,East,90,12.0,22.0,50,0.00,,,0.00,VWS V14.01,2013-05-08 00:37:00,
2013-05-07 18:42:00,63.0,43.6,29.75,East,90,18.0,22.0,49,0.00,,,0.00,VWS V14.01,2013-05-08 00:42:00,
2013-05-07 18:47:00,63.0,44.1,29.75,East,90,12.0,22.0,50,0.00,,,0.00,VWS V14.01,2013-05-08 00:47:00,
2013-05-07 18:52:00,63.0,43.0,29.75,ESE,112,13.0,25.0,48,0.00,,,0.00,VWS V14.01,2013-05-08 00:52:00,
2013-05-07 18:57:00,64.0,43.4,29.75,ESE,112,17.0,26.0,47,0.00,,,0.00,VWS V14.01,2013-05-08 00:57:00,
2013-05-07 19:02:00,63.0,43.6,29.75,SSE,157,11.0,23.0,49,0.00,,,0.00,VWS V14.01,2013-05-08 01:02:00,
2013-05-07 19:07:00,63.0,43.6,29.75,ESE,112,20.0,23.0,49,0.00,,,0.00,VWS V14.01,2013-05-08 01:07:00,
2013-05-07 19:12:00,62.0,43.2,29.76,ESE,112,16.0,23.0,50,0.00,,,0.00,VWS V14.01,2013-05-08 01:12:00,
2013-05-07 19:17:00,62.0,43.7,29.76,ESE,112,16.0,23.0,51,0.00,,,0.00,VWS V14.01,2013-05-08 01:17:00,
2013-05-07 19:22:00,61.0,43.3,29.77,ESE,112,13.0,23.0,52,0.00,,,0.00,VWS V14.01,2013-05-08 01:22:00,
2013-05-07 19:27:00,61.0,44.2,29.77,SE,135,11.0,23.0,54,0.00,,,0.00,VWS V14.01,2013-05-08 01:27:00,
2013-05-07 19:32:00,61.0,44.2,29.79,SE,135,9.0,16.0,54,0.00,,,0.00,VWS V14.01,2013-05-08 01:32:00,
2013-05-07 19:37:00,60.0,43.3,29.79,SE,135,12.0,16.0,54,0.00,,,0.00,VWS V14.01,2013-05-08 01:37:00,
2013-05-07 19:42:00,60.0,43.8,29.79,SSE,157,10.0,17.0,55,0.00,,,0.00,VWS V14.01,2013-05-08 01:42:00,
2013-05-07 19:47:00,60.0,44.7,29.79,SSE,157,11.0,21.0,57,0.00,,,0.00,VWS V14.01,2013-05-08 01:47:00,
2013-05-07 19:52:00,59.0,44.3,29.81,SE,135,12.0,21.0,58,0.00,,,0.00,VWS V14.01,2013-05-08 01:52:00,
2013-05-07 19:57:00,59.0,44.7,29.81,South,180,12.0,21.0,59,0.00,,,0.00,VWS V14.01,2013-05-08 01:57:00,
2013-05-07 20:02:00,58.0,44.2,29.82,South,180,14.0,14.0,60,0.00,,,0.00,VWS V14.01,2013-05-08 02:02:00,
2013-05-07 20:07:00,58.0,44.6,29.82,South,180,10.0,17.0,61,0.00,,,0.00,VWS V14.01,2013-05-08 02:07:00,
2013-05-07 20:12:00,58.0,45.1,29.83,South,180,12.0,17.0,62,0.00,,,0.00,VWS V14.01,2013-05-08 02:12:00,
2013-05-07 20:17:00,57.0,44.5,29.83,South,180,11.0,17.0,63,0.00,,,0.00,VWS V14.01,2013-05-08 02:17:00,
2013-05-07 20:22:00,57.0,45.0,29.84,South,180,17.0,25.0,64,0.00,,,0.00,VWS V14.01,2013-05-08 02:22:00,
2013-05-07 20:27:00,57.0,45.0,29.84,South,180,11.0,25.0,64,0.00,,,0.00,VWS V14.01,2013-05-08 02:27:00,
2013-05-07 20:32:00,56.0,44.8,29.84,South,180,15.0,16.0,66,0.00,,,0.00,VWS V14.01,2013-05-08 02:32:00,
2013-05-07 20:37:00,56.0,45.6,29.84,South,180,12.0,16.0,68,0.00,,,0.00,VWS V14.01,2013-05-08 02:37:00,
2013-05-07 20:42:00,56.0,46.0,29.85,South,180,11.0,16.0,69,0.00,,,0.00,VWS V14.01,2013-05-08 02:42:00,
2013-05-07 20:47:00,55.0,45.4,29.85,SSW,202,9.0,16.0,70,0.00,,,0.00,VWS V14.01,2013-05-08 02:47:00,
2013-05-07 20:52:00,55.0,45.8,29.86,South,180,15.0,16.0,71,0.00,,,0.00,VWS V14.01,2013-05-08 02:52:00,
2013-05-07 20:57:00,55.0,45.8,29.86,South,180,14.0,16.0,71,0.00,,,0.00,VWS V14.01,2013-05-08 02:57:00,
2013-05-07 21:02:00,55.0,45.8,29.85,South,180,17.0,20.0,71,0.00,,,0.00,VWS V14.01,2013-05-08 03:02:00,
2013-05-07 21:07:00,55.0,45.8,29.85,South,180,14.0,20.0,71,0.00,,,0.00,VWS V14.01,2013-05-08 03:07:00,
2013-05-07 21:12:00,54.0,45.5,29.86,South,180,12.0,20.0,73,0.00,,,0.00,VWS V14.01,2013-05-08 03:12:00,
2013-05-07 21:17:00,54.0,45.9,29.86,South,180,13.0,20.0,74,0.00,,,0.00,VWS V14.01,2013-05-08 03:17:00,
2013-05-07 21:22:00,54.0,46.3,29.87,South,180,14.0,20.0,75,0.00,,,0.00,VWS V14.01,2013-05-08 03:22:00,
2013-05-07 21:27:00,54.0,46.3,29.87,South,180,16.0,20.0,75,0.00,,,0.00,VWS V14.01,2013-05-08 03:27:00,
2013-05-07 21:32:00,54.0,46.6,29.87,SSW,202,13.0,17.0,76,0.00,,,0.00,VWS V14.01,2013-05-08 03:32:00,
2013-05-07 21:37:00,54.0,46.6,29.87,South,180,16.0,19.0,76,0.00,,,0.00,VWS V14.01,2013-05-08 03:37:00,
2013-05-07 21:42:00,54.0,45.9,29.87,South,180,16.0,20.0,74,0.00,,,0.00,VWS V14.01,2013-05-08 03:42:00,
2013-05-07 21:47:00,54.0,45.9,29.87,South,180,17.0,20.0,74,0.00,,,0.00,VWS V14.01,2013-05-08 03:47:00,
2013-05-07 21:52:00,54.0,45.9,29.87,South,180,17.0,20.0,74,0.00,,,0.00,VWS V14.01,2013-05-08 03:52:00,
2013-05-07 21:57:00,54.0,45.9,29.87,South,180,14.0,22.0,74,0.00,,,0.00,VWS V14.01,2013-05-08 03:57:00,
2013-05-07 22:01:00,54.0,45.9,29.87,South,180,10.0,17.0,74,0.00,,,0.00,VWS V14.01,2013-05-08 04:01:00,
2013-05-07 22:06:00,54.0,46.6,29.87,South,180,15.0,17.0,76,0.00,,,0.00,VWS V14.01,2013-05-08 04:06:00,
2013-05-07 22:11:00,54.0,46.6,29.87,South,180,12.0,17.0,76,0.00,,,0.00,VWS V14.01,2013-05-08 04:11:00,
2013-05-07 22:16:00,53.0,46.0,29.87,South,180,10.0,17.0,77,0.00,,,0.00,VWS V14.01,2013-05-08 04:16:00,
2013-05-07 22:21:00,53.0,46.0,29.88,South,180,9.0,17.0,77,0.00,,,0.00,VWS V14.01,2013-05-08 04:21:00,
2013-05-07 22:26:00,52.0,45.4,29.88,SSE,157,8.0,17.0,78,0.00,,,0.00,VWS V14.01,2013-05-08 04:26:00,
2013-05-07 22:31:00,52.0,46.0,29.89,SE,135,5.0,7.0,80,0.00,,,0.00,VWS V14.01,2013-05-08 04:31:00,
2013-05-07 22:36:00,51.0,46.0,29.89,SE,135,5.0,8.0,83,0.00,,,0.00,VWS V14.01,2013-05-08 04:36:00,
2013-05-07 22:41:00,51.0,46.0,29.89,SSE,157,6.0,8.0,83,0.00,,,0.00,VWS V14.01,2013-05-08 04:41:00,
2013-05-07 22:46:00,50.0,45.7,29.89,SSE,157,6.0,8.0,85,0.00,,,0.00,VWS V14.01,2013-05-08 04:46:00,
2013-05-07 22:51:00,50.0,45.7,29.90,ESE,112,2.0,8.0,85,0.00,,,0.00,VWS V14.01,2013-05-08 04:51:00,
2013-05-07 22:56:00,50.0,46.3,29.90,SE,135,4.0,8.0,87,0.00,,,0.00,VWS V14.01,2013-05-08 04:56:00,
2013-05-07 23:01:00,49.0,45.0,29.90,SSE,157,1.0,5.0,86,0.00,,,0.00,VWS V14.01,2013-05-08 05:01:00,
2013-05-07 23:06:00,49.0,45.6,29.90,SSE,157,7.0,7.0,88,0.00,,,0.00,VWS V14.01,2013-05-08 05:06:00,
2013-05-07 23:11:00,49.0,45.6,29.90,SE,135,3.0,7.0,88,0.00,,,0.00,VWS V14.01,2013-05-08 05:11:00,
2013-05-07 23:16:00,49.0,45.6,29.90,SE,135,5.0,7.0,88,0.00,,,0.00,VWS V14.01,2013-05-08 05:16:00,
2013-05-07 23:21:00,49.0,45.6,29.90,SE,135,4.0,7.0,88,0.00,,,0.00,VWS V14.01,2013-05-08 05:21:00,
2013-05-07 23:26:00,49.0,45.6,29.90,SE,135,4.0,7.0,88,0.00,,,0.00,VWS V14.01,2013-05-08 05:26:00,
2013-05-07 23:31:00,49.0,45.6,29.90,SSE,157,6.0,7.0,88,0.00,,,0.00,VWS V14.01,2013-05-08 05:31:00,
2013-05-07 23:36:00,49.0,45.6,29.90,SE,135,2.0,7.0,88,0.00,,,0.00,VWS V14.01,2013-05-08 05:36:00,
2013-05-07 23:41:00,49.0,45.9,29.90,SE,135,0.0,7.0,89,0.00,,,0.00,VWS V14.01,2013-05-08 05:41:00,
2013-05-07 23:46:00,48.0,44.9,29.90,SE,135,0.0,7.0,89,0.00,,,0.00,VWS V14.01,2013-05-08 05:46:00,
2013-05-07 23:51:00,47.0,43.6,29.91,WSW,247,0.0,7.0,88,0.00,,,0.00,VWS V14.01,2013-05-08 05:51:00,
2013-05-07 23:56:00,47.0,43.0,29.91,SSW,202,1.0,7.0,86,0.00,,,0.00,VWS V14.01,2013-05-08 05:56:00,